Radiation Dose measured at exhaust stack monitor of Miscellaneous Solid Waste Incinerator Building/Incinerator raregas monitor
Date,Time,Incinerator Gas Monitor(cps),Wind Direction,Wind Velocity(m/s)
2022/12/11,00:00,1.5,northwest,5.6
2022/12/11,00:10,1.5,northwest,5.5
2022/12/11,00:20,1.5,northwest,5.4
2022/12/11,00:30,1.4,northwest,4.9
2022/12/11,00:40,1.5,northwest,4.7
2022/12/11,00:50,1.4,northwest,4.4
2022/12/11,01:00,1.5,northwest,4.9
2022/12/11,01:10,1.5,north-northwest,4.5
2022/12/11,01:20,1.5,northwest,4.2
2022/12/11,01:30,1.5,northwest,5.3
2022/12/11,01:40,1.5,northwest,5.5
2022/12/11,01:50,1.5,northwest,4.9
2022/12/11,02:00,1.5,northwest,6.2
2022/12/11,02:10,1.4,northwest,6.3
2022/12/11,02:20,1.5,northwest,6.2
2022/12/11,02:30,1.5,northwest,6.3
2022/12/11,02:40,1.5,northwest,7.2
2022/12/11,02:50,1.5,northwest,7.1
2022/12/11,03:00,1.5,northwest,7.8
2022/12/11,03:10,1.4,north-northwest,8.1
2022/12/11,03:20,1.5,north-northwest,8.0
2022/12/11,03:30,1.5,northwest,7.4
2022/12/11,03:40,1.5,north-northwest,8.2
2022/12/11,03:50,1.5,north-northwest,8.3
2022/12/11,04:00,1.5,north-northwest,8.6
2022/12/11,04:10,1.6,north-northwest,7.2
2022/12/11,04:20,1.5,north-northwest,9.1
2022/12/11,04:30,1.5,north-northwest,8.9
2022/12/11,04:40,1.5,north-northwest,8.1
2022/12/11,04:50,1.5,north-northwest,8.4
2022/12/11,05:00,1.4,north-northwest,8.3
2022/12/11,05:10,1.5,north-northwest,9.5
2022/12/11,05:20,1.5,north-northwest,9.8
2022/12/11,05:30,1.6,north-northwest,9.7
2022/12/11,05:40,1.6,northwest,10.2
2022/12/11,05:50,1.5,north-northwest,8.2
2022/12/11,06:00,1.5,north-northwest,7.9
2022/12/11,06:10,1.5,northwest,8.3
2022/12/11,06:20,1.5,north-northwest,8.8
2022/12/11,06:30,1.5,north-northwest,8.8
2022/12/11,06:40,1.5,northwest,8.4
2022/12/11,06:50,1.5,north-northwest,9.7
2022/12/11,07:00,1.5,north-northwest,8.7
2022/12/11,07:10,1.5,north-northwest,10.2
2022/12/11,07:20,1.4,north-northwest,10.2
2022/12/11,07:30,1.5,north-northwest,10.8
2022/12/11,07:40,1.4,north-northwest,9.9
2022/12/11,07:50,1.4,north-northwest,10.6
2022/12/11,08:00,1.4,north-northwest,10.2
2022/12/11,08:10,1.4,north-northwest,9.1
2022/12/11,08:20,1.6,north-northwest,8.7
2022/12/11,08:30,1.4,north-northwest,7.8
2022/12/11,08:40,1.5,northwest,8.6
2022/12/11,08:50,1.5,northwest,10.6
2022/12/11,09:00,1.5,north-northwest,8.9
2022/12/11,09:10,1.5,northwest,9.7
2022/12/11,09:20,1.5,north-northwest,7.1
2022/12/11,09:30,1.4,northwest,8.4
2022/12/11,09:40,1.4,north-northwest,9.1
2022/12/11,09:50,1.5,north-northwest,10.8
2022/12/11,10:00,1.5,north-northwest,9.0
2022/12/11,10:10,1.5,north-northwest,9.2
2022/12/11,10:20,1.6,north-northwest,9.4
2022/12/11,10:30,1.5,northwest,8.6
2022/12/11,10:40,1.5,north-northwest,9.1
2022/12/11,10:50,1.5,north-northwest,8.2
2022/12/11,11:00,1.5,north-northwest,7.4
2022/12/11,11:10,1.4,north-northwest,7.8
2022/12/11,11:20,1.5,north-northwest,6.9
2022/12/11,11:30,1.5,north-northwest,6.7
2022/12/11,11:40,1.5,north-northwest,5.9
2022/12/11,11:50,1.5,north-northwest,5.3
2022/12/11,12:00,1.6,north-northwest,6.2
2022/12/11,12:10,1.5,north-northwest,5.7
2022/12/11,12:20,1.5,north-northwest,5.4
2022/12/11,12:30,1.5,north-northwest,5.0
2022/12/11,12:40,1.5,north-northwest,3.9
2022/12/11,12:50,1.5,north-northwest,3.8
2022/12/11,13:00,1.4,north-northwest,4.5
2022/12/11,13:10,1.4,northwest,4.5
2022/12/11,13:20,1.5,west-northwest,3.3
2022/12/11,13:30,1.6,north-northwest,4.6
2022/12/11,13:40,1.6,northwest,3.2
2022/12/11,13:50,1.5,west-northwest,4.0
2022/12/11,14:00,1.5,northwest,5.0
2022/12/11,14:10,1.5,northwest,4.3
2022/12/11,14:20,1.4,northwest,4.3
2022/12/11,14:30,1.6,north-northwest,5.2
2022/12/11,14:40,1.6,northwest,5.7
2022/12/11,14:50,1.6,northwest,4.3
2022/12/11,15:00,1.6,north-northwest,3.2
2022/12/11,15:10,1.5,north-northwest,3.9
2022/12/11,15:20,1.5,north-northwest,3.8
2022/12/11,15:30,1.5,north-northwest,3.4
2022/12/11,15:40,1.4,northwest,3.7
2022/12/11,15:50,1.4,north-northwest,3.9
2022/12/11,16:00,1.6,north-northwest,3.6
2022/12/11,16:10,1.5,north,5.0
2022/12/11,16:20,1.5,north,4.9
2022/12/11,16:30,1.5,north,6.1
2022/12/11,16:40,1.5,north,6.7
2022/12/11,16:50,1.5,north,7.4
2022/12/11,17:00,1.5,north,7.0
2022/12/11,17:10,1.5,north,6.7
2022/12/11,17:20,1.5,north,8.4
2022/12/11,17:30,1.5,north,7.4
2022/12/11,17:40,1.5,north-northwest,6.7
2022/12/11,17:50,1.4,north-northwest,5.4
2022/12/11,18:00,1.4,north-northwest,4.9
2022/12/11,18:10,1.5,north-northwest,5.4
2022/12/11,18:20,1.5,north-northwest,4.7
2022/12/11,18:30,1.4,north-northwest,5.2
2022/12/11,18:40,1.5,north-northwest,5.9
2022/12/11,18:50,1.5,north-northwest,6.7
2022/12/11,19:00,1.4,north-northwest,6.3
2022/12/11,19:10,1.5,north-northwest,6.5
2022/12/11,19:20,1.4,north-northwest,8.1
2022/12/11,19:30,1.5,north-northwest,7.7
2022/12/11,19:40,1.4,north-northwest,9.2
2022/12/11,19:50,1.5,north-northwest,7.6
2022/12/11,20:00,1.4,north-northwest,7.0
2022/12/11,20:10,1.5,north-northwest,6.6
2022/12/11,20:20,1.5,north-northwest,6.4
2022/12/11,20:30,1.5,north-northwest,6.9
2022/12/11,20:40,1.4,north-northwest,7.4
2022/12/11,20:50,1.4,north-northwest,7.6
2022/12/11,21:00,1.5,north-northwest,8.1
2022/12/11,21:10,1.5,north-northwest,7.0
2022/12/11,21:20,1.5,northwest,6.8
2022/12/11,21:30,1.5,north-northwest,6.4
2022/12/11,21:40,1.5,northwest,6.3
2022/12/11,21:50,1.5,north-northwest,7.0
2022/12/11,22:00,1.4,north-northwest,7.2
2022/12/11,22:10,1.5,north-northwest,8.4
2022/12/11,22:20,1.4,north-northwest,6.7
2022/12/11,22:30,1.6,north-northwest,5.9
2022/12/11,22:40,1.5,north-northwest,7.0
2022/12/11,22:50,1.5,north-northwest,6.3
2022/12/11,23:00,1.5,north-northwest,6.9
2022/12/11,23:10,1.4,northwest,6.1
2022/12/11,23:20,1.5,northwest,6.3
2022/12/11,23:30,1.5,northwest,7.5
2022/12/11,23:40,1.4,northwest,7.5
2022/12/11,23:50,1.4,northwest,6.8
